TimeMST,TemperatureF,Dew PointF,Humidity,Sea Level PressureIn,VisibilityMPH,Wind Direction,Wind SpeedMPH,Gust SpeedMPH,PrecipitationIn,Events,Conditions,WindDirDegrees,DateUTC
12:53 AM,-5.1,-9.0,83,30.65,10.0,ENE,3.5,-,N/A,,Clear,60,2013-01-04 07:53:00
1:53 AM,-6.0,-9.0,87,30.64,10.0,Calm,Calm,-,N/A,,Partly Cloudy,0,2013-01-04 08:53:00
2:53 AM,-6.0,-9.9,83,30.64,10.0,Calm,Calm,-,N/A,,Clear,0,2013-01-04 09:53:00
3:53 AM,-5.1,-9.0,83,30.63,10.0,NNE,3.5,-,N/A,,Clear,30,2013-01-04 10:53:00
4:40 AM,-7.6,-11.2,84,30.35,10.0,Calm,Calm,-,N/A,,Partly Cloudy,0,2013-01-04 11:40:00
6:53 AM,-6.0,-9.9,83,30.68,10.0,Calm,Calm,-,N/A,,Clear,0,2013-01-04 13:53:00
7:53 AM,-9.0,-13.0,83,30.71,10.0,Calm,Calm,-,N/A,,Clear,0,2013-01-04 14:53:00
8:46 AM,-7.6,-11.2,84,30.37,1.8,Calm,Calm,-,N/A,,Clear,0,2013-01-04 15:46:00
8:53 AM,-6.0,-9.9,83,30.71,1.8,Calm,Calm,-,N/A,,Clear,0,2013-01-04 15:53:00
8:56 AM,-5.8,-9.4,84,30.37,3.0,Calm,Calm,-,N/A,,Clear,0,2013-01-04 15:56:00
9:53 AM,-0.9,-6.0,79,30.69,10.0,East,3.5,-,N/A,,Clear,80,2013-01-04 16:53:00
10:53 AM,3.9,-2.9,73,30.67,10.0,Calm,Calm,-,N/A,,Clear,0,2013-01-04 17:53:00
11:53 AM,8.1,-0.0,70,30.65,10.0,Calm,Calm,-,N/A,,Clear,0,2013-01-04 18:53:00
12:53 PM,10.9,1.0,64,30.62,10.0,Calm,Calm,-,N/A,,Clear,0,2013-01-04 19:53:00
1:53 PM,15.1,3.9,61,30.59,10.0,Calm,Calm,-,N/A,,Clear,0,2013-01-04 20:53:00
2:53 PM,14.0,3.0,62,30.58,10.0,West,3.5,-,N/A,,Clear,260,2013-01-04 21:53:00
3:53 PM,15.1,3.0,59,30.58,10.0,Calm,Calm,-,N/A,,Clear,0,2013-01-04 22:53:00
4:53 PM,12.9,3.0,65,30.61,10.0,Calm,Calm,-,N/A,,Clear,0,2013-01-04 23:53:00
6:53 PM,6.1,1.0,80,30.63,10.0,Calm,Calm,-,N/A,,Clear,0,2013-01-05 01:53:00
7:53 PM,-0.9,-5.1,83,30.69,10.0,ENE,3.5,-,N/A,,Clear,60,2013-01-05 02:53:00
8:53 PM,-0.9,-4.0,87,30.68,10.0,East,3.5,-,N/A,,Clear,90,2013-01-05 03:53:00
9:53 PM,-2.9,-7.1,82,30.66,10.0,NE,3.5,-,N/A,,Clear,40,2013-01-05 04:53:00
10:53 PM,-5.1,-9.0,83,30.67,10.0,Calm,Calm,-,N/A,,Clear,0,2013-01-05 05:53:00
11:10 PM,-5.8,-9.4,84,30.34,10.0,Calm,Calm,-,N/A,,Scattered Clouds,0,2013-01-05 06:10:00
11:53 PM,-5.1,-8.0,87,30.64,10.0,NE,3.5,-,N/A,,Clear,40,2013-01-05 06:53:00